LHA280 EDDK-LIML

Flight info

Callsign LHA280
Flight time 1h 15m
Altitude 38000
Route KUMIK Y854 BOMBI DCT GIGET DCT ABUKA DCT KRH DCT NATOR/N0451F370 DCT TRA DCT RIPUS DCT GERSA DCT SOSON DCT ODINA
Aircraft A321/M-SDE1E2FGIJ1RWYZ/S

Departure

Time 2026-05-05 20:18
Airport Cologne Bonn Airport (EDDK)

Arrival

Time 2026-05-05 21:33
Airport Milano Linate Airport (LIML)
Time Latitude Longitude Altitude Speed Heading
2026-05-05 19:46 50.87383 7.13046 243 ft 0 kts 227°
2026-05-05 20:05 50.87388 7.13055 243 ft 2 kts 227°
2026-05-05 20:05 50.87398 7.13072 243 ft 2 kts 227°
2026-05-05 20:05 50.87408 7.13090 244 ft 2 kts 227°
2026-05-05 20:06 50.87418 7.13107 244 ft 2 kts 227°
2026-05-05 20:06 50.87427 7.13122 244 ft 0 kts 227°
2026-05-05 20:06 50.87436 7.13135 244 ft 2 kts 207°
2026-05-05 20:06 50.87450 7.13140 244 ft 2 kts 171°
2026-05-05 20:07 50.87463 7.13133 244 ft 0 kts 140°
2026-05-05 20:07 50.87468 7.13123 244 ft 0 kts 128°
2026-05-05 20:07 50.87471 7.13118 244 ft 0 kts 136°
2026-05-05 20:09 50.87466 7.13126 244 ft 3 kts 134°
2026-05-05 20:09 50.87400 7.13228 244 ft 17 kts 137°
2026-05-05 20:09 50.87313 7.13356 244 ft 17 kts 137°
2026-05-05 20:10 50.87224 7.13485 244 ft 17 kts 137°
2026-05-05 20:10 50.87139 7.13611 246 ft 16 kts 136°
2026-05-05 20:10 50.87060 7.13729 249 ft 14 kts 136°
2026-05-05 20:10 50.86990 7.13835 251 ft 13 kts 136°
2026-05-05 20:11 50.86923 7.13939 252 ft 13 kts 135°
2026-05-05 20:11 50.86856 7.14031 254 ft 12 kts 141°
2026-05-05 20:11 50.86794 7.14106 256 ft 11 kts 151°
2026-05-05 20:11 50.86724 7.14155 257 ft 10 kts 144°
2026-05-05 20:12 50.86631 7.14284 260 ft 24 kts 136°
2026-05-05 20:12 50.86517 7.14452 266 ft 20 kts 137°
2026-05-05 20:12 50.86419 7.14595 270 ft 17 kts 137°
2026-05-05 20:12 50.86335 7.14718 275 ft 15 kts 137°
2026-05-05 20:13 50.86253 7.14838 278 ft 18 kts 137°
2026-05-05 20:13 50.86145 7.14992 280 ft 23 kts 137°
2026-05-05 20:13 50.86011 7.15186 281 ft 27 kts 137°
2026-05-05 20:13 50.85876 7.15381 282 ft 25 kts 137°
2026-05-05 20:14 50.85752 7.15561 284 ft 23 kts 137°
2026-05-05 20:14 50.85638 7.15725 288 ft 20 kts 138°
2026-05-05 20:14 50.85536 7.15871 290 ft 19 kts 137°
2026-05-05 20:14 50.85444 7.16004 294 ft 16 kts 137°
2026-05-05 20:15 50.85371 7.16122 298 ft 13 kts 124°
2026-05-05 20:15 50.85338 7.16248 301 ft 11 kts 98°
2026-05-05 20:15 50.85347 7.16364 304 ft 10 kts 66°
2026-05-05 20:15 50.85401 7.16469 305 ft 18 kts 35°
2026-05-05 20:16 50.85527 7.16512 307 ft 18 kts 352°
2026-05-05 20:16 50.85598 7.16451 306 ft 0 kts 318°
2026-05-05 20:17 50.85601 7.16446 305 ft 0 kts 318°
2026-05-05 20:17 50.85603 7.16444 305 ft 1 kts 318°
2026-05-05 20:17 50.85742 7.16244 301 ft 63 kts 317°
2026-05-05 20:18 50.86238 7.15522 288 ft 129 kts 319°
2026-05-05 20:18 50.87045 7.14375 378 ft 172 kts 319°
2026-05-05 20:18 50.87949 7.13207 1106 ft 166 kts 324°
2026-05-05 20:18 50.88831 7.12194 1900 ft 153 kts 333°
2026-05-05 20:19 50.89769 7.11917 2424 ft 136 kts 20°
2026-05-05 20:19 50.90651 7.12536 2660 ft 142 kts 25°
2026-05-05 20:19 50.91599 7.13124 2932 ft 151 kts 20°
2026-05-05 20:19 50.92637 7.13557 3226 ft 159 kts 19°
2026-05-05 20:20 50.93557 7.14531 3553 ft 163 kts 52°
2026-05-05 20:20 50.94177 7.16040 3955 ft 167 kts 58°
2026-05-05 20:20 50.94789 7.17662 4303 ft 176 kts 59°
2026-05-05 20:20 50.95371 7.19424 4640 ft 189 kts 64°
2026-05-05 20:21 50.95941 7.21367 4942 ft 204 kts 64°
2026-05-05 20:21 50.96582 7.23519 5221 ft 225 kts 64°
2026-05-05 20:21 50.97285 7.25813 5607 ft 242 kts 63°
2026-05-05 20:21 50.98066 7.28317 6030 ft 260 kts 63°
2026-05-05 20:22 50.98891 7.30940 6610 ft 272 kts 63°
2026-05-05 20:22 50.99731 7.33608 7378 ft 275 kts 63°
2026-05-05 20:22 51.00578 7.36296 8143 ft 278 kts 63°
2026-05-05 20:22 51.01442 7.39065 8894 ft 281 kts 65°
2026-05-05 20:23 51.01906 7.42063 9582 ft 285 kts 88°
2026-05-05 20:23 51.01612 7.45133 10262 ft 290 kts 105°
2026-05-05 20:23 51.01000 7.48263 10648 ft 305 kts 107°
2026-05-05 20:23 51.00326 7.51561 10959 ft 322 kts 107°
2026-05-05 20:24 50.99626 7.55018 11254 ft 339 kts 107°
2026-05-05 20:24 50.98901 7.58639 11577 ft 353 kts 107°
2026-05-05 20:24 50.98162 7.62368 12151 ft 359 kts 107°
2026-05-05 20:24 50.97411 7.66168 12812 ft 362 kts 108°
2026-05-05 20:25 50.96664 7.69947 13442 ft 365 kts 108°
2026-05-05 20:25 50.95903 7.73794 14054 ft 368 kts 108°
2026-05-05 20:25 50.95124 7.77681 14667 ft 371 kts 110°
2026-05-05 20:25 50.94177 7.81427 15250 ft 374 kts 115°
2026-05-05 20:26 50.92952 7.85112 15842 ft 376 kts 121°
2026-05-05 20:26 50.91546 7.88599 16434 ft 379 kts 123°
2026-05-05 20:26 50.90099 7.92047 17000 ft 381 kts 124°
2026-05-05 20:26 50.88618 7.95557 17584 ft 383 kts 125°
2026-05-05 20:27 50.87142 7.99065 18107 ft 387 kts 124°
2026-05-05 20:27 50.85659 8.02597 18626 ft 389 kts 124°
2026-05-05 20:27 50.83981 8.05961 19154 ft 391 kts 133°
2026-05-05 20:27 50.81990 8.08887 19670 ft 393 kts 142°
2026-05-05 20:28 50.79742 8.11374 20180 ft 395 kts 147°
2026-05-05 20:28 50.77434 8.13707 20651 ft 398 kts 148°
2026-05-05 20:28 50.75093 8.16045 21106 ft 401 kts 148°
2026-05-05 20:28 50.72722 8.18412 21584 ft 404 kts 148°
2026-05-05 20:29 50.70355 8.20781 22062 ft 406 kts 147°
2026-05-05 20:29 50.67954 8.23184 22532 ft 408 kts 147°
2026-05-05 20:29 50.65557 8.25585 22950 ft 411 kts 147°
2026-05-05 20:29 50.63164 8.27980 23368 ft 413 kts 147°
2026-05-05 20:30 50.60718 8.30430 23803 ft 415 kts 147°
2026-05-05 20:30 50.58268 8.32877 24225 ft 417 kts 147°
2026-05-05 20:30 50.55826 8.35316 24670 ft 418 kts 147°
2026-05-05 20:30 50.53400 8.37736 25101 ft 419 kts 147°
2026-05-05 20:31 50.50915 8.40211 25509 ft 421 kts 147°
2026-05-05 20:31 50.48468 8.42646 25917 ft 421 kts 147°
2026-05-05 20:31 50.46001 8.45098 26333 ft 422 kts 147°
2026-05-05 20:31 50.43511 8.47570 26709 ft 423 kts 147°
2026-05-05 20:32 50.41007 8.50051 27110 ft 424 kts 147°
2026-05-05 20:32 50.38515 8.52491 27481 ft 425 kts 148°
2026-05-05 20:32 50.35954 8.54759 27862 ft 425 kts 150°
2026-05-05 20:32 50.33357 8.56930 28221 ft 426 kts 150°
2026-05-05 20:33 50.30769 8.59110 28656 ft 424 kts 150°
2026-05-05 20:33 50.28192 8.61276 29169 ft 421 kts 150°
2026-05-05 20:33 50.25620 8.63433 29707 ft 417 kts 150°
2026-05-05 20:33 50.23098 8.65545 30246 ft 413 kts 151°
2026-05-05 20:34 50.20570 8.67656 30741 ft 410 kts 151°
2026-05-05 20:34 50.18090 8.69725 31145 ft 408 kts 151°
2026-05-05 20:34 50.15594 8.71805 31485 ft 407 kts 151°
2026-05-05 20:34 50.13081 8.73836 31812 ft 407 kts 153°
2026-05-05 20:35 50.10483 8.75524 32124 ft 407 kts 158°
2026-05-05 20:35 50.07789 8.76834 32433 ft 407 kts 163°
2026-05-05 20:35 50.05031 8.77752 32728 ft 409 kts 168°
2026-05-05 20:35 50.02202 8.78278 32986 ft 411 kts 173°
2026-05-05 20:36 49.99366 8.78393 33255 ft 413 kts 178°
2026-05-05 20:36 49.96492 8.78064 33547 ft 414 kts 183°
2026-05-05 20:36 49.93646 8.77515 33814 ft 414 kts 184°
2026-05-05 20:36 49.90809 8.76946 34041 ft 414 kts 184°
2026-05-05 20:37 49.87938 8.76358 34291 ft 414 kts 184°
2026-05-05 20:37 49.85087 8.75771 34545 ft 414 kts 184°
2026-05-05 20:37 49.82243 8.75185 34766 ft 413 kts 185°
2026-05-05 20:37 49.79402 8.74602 34952 ft 413 kts 185°
2026-05-05 20:38 49.76593 8.74028 35117 ft 413 kts 185°
2026-05-05 20:38 49.73731 8.73444 35282 ft 413 kts 185°
2026-05-05 20:38 49.70915 8.72866 35447 ft 412 kts 186°
2026-05-05 20:38 49.68086 8.72289 35602 ft 412 kts 186°
2026-05-05 20:39 49.65223 8.71711 35717 ft 412 kts 186°
2026-05-05 20:39 49.62403 8.71143 35855 ft 412 kts 186°
2026-05-05 20:39 49.59571 8.70573 35965 ft 412 kts 186°
2026-05-05 20:40 49.53901 8.69430 36199 ft 414 kts 187°
2026-05-05 20:40 49.51026 8.68850 36359 ft 415 kts 187°
2026-05-05 20:40 49.48164 8.68275 36496 ft 416 kts 187°
2026-05-05 20:40 49.45303 8.67701 36646 ft 416 kts 187°
2026-05-05 20:41 49.42470 8.67129 36774 ft 417 kts 187°
2026-05-05 20:41 49.39574 8.66542 36895 ft 418 kts 187°
2026-05-05 20:41 49.36734 8.65969 37027 ft 418 kts 187°
2026-05-05 20:41 49.33852 8.65386 37157 ft 419 kts 187°
2026-05-05 20:42 49.30957 8.64803 37264 ft 419 kts 187°
2026-05-05 20:42 49.28084 8.64223 37365 ft 420 kts 188°
2026-05-05 20:42 49.25177 8.63637 37466 ft 421 kts 188°
2026-05-05 20:42 49.22287 8.63055 37579 ft 422 kts 188°
2026-05-05 20:43 49.19387 8.62471 37685 ft 422 kts 188°
2026-05-05 20:43 49.13573 8.61305 37825 ft 424 kts 188°
2026-05-05 20:44 49.07724 8.60130 37833 ft 425 kts 188°
2026-05-05 20:44 49.01853 8.58960 37824 ft 425 kts 188°
2026-05-05 20:45 48.93164 8.56450 37836 ft 425 kts 193°
2026-05-05 20:45 48.87391 8.54591 37841 ft 425 kts 193°
2026-05-05 20:46 48.81672 8.52748 37846 ft 425 kts 193°
2026-05-05 20:46 48.75900 8.50890 37846 ft 425 kts 193°
2026-05-05 20:47 48.70111 8.49029 37852 ft 425 kts 193°
2026-05-05 20:47 48.64376 8.47189 37851 ft 425 kts 193°
2026-05-05 20:48 48.58569 8.45333 37853 ft 425 kts 193°
2026-05-05 20:48 48.52838 8.43502 37847 ft 425 kts 193°
2026-05-05 20:49 48.47046 8.41659 37852 ft 426 kts 193°
2026-05-05 20:49 48.41285 8.39825 37858 ft 425 kts 193°
2026-05-05 20:50 48.35511 8.37992 37863 ft 425 kts 193°
2026-05-05 20:50 48.29743 8.36166 37862 ft 424 kts 193°
2026-05-05 20:51 48.23970 8.34453 37855 ft 425 kts 189°
2026-05-05 20:51 48.18101 8.33573 37866 ft 426 kts 184°
2026-05-05 20:52 48.12170 8.33682 37874 ft 428 kts 178°
2026-05-05 20:52 48.06268 8.34782 37882 ft 430 kts 173°
2026-05-05 20:53 48.00377 8.36199 37881 ft 431 kts 173°
2026-05-05 20:53 47.94504 8.37604 37893 ft 431 kts 173°
2026-05-05 20:54 47.88553 8.39031 37893 ft 431 kts 173°
2026-05-05 20:54 47.82655 8.40444 37900 ft 430 kts 173°
2026-05-05 20:55 47.76774 8.41850 37899 ft 429 kts 173°
2026-05-05 20:55 47.70919 8.43248 37903 ft 429 kts 173°
2026-05-05 20:56 47.65008 8.44285 37911 ft 428 kts 176°
2026-05-05 20:56 47.59108 8.45165 37912 ft 427 kts 176°
2026-05-05 20:57 47.53200 8.46040 37904 ft 427 kts 176°
2026-05-05 20:57 47.47326 8.46906 37912 ft 427 kts 176°
2026-05-05 20:58 47.41389 8.47778 37906 ft 428 kts 176°
2026-05-05 20:58 47.35500 8.48637 37906 ft 428 kts 176°
2026-05-05 20:59 47.29557 8.49504 37906 ft 428 kts 176°
2026-05-05 20:59 47.23660 8.50365 37913 ft 428 kts 177°
2026-05-05 21:00 47.17791 8.51222 37907 ft 427 kts 177°
2026-05-05 21:00 47.11898 8.52077 37923 ft 427 kts 177°
2026-05-05 21:01 47.05998 8.52933 37918 ft 427 kts 177°
2026-05-05 21:01 47.00090 8.53786 37930 ft 426 kts 177°
2026-05-05 21:02 46.94207 8.54637 37917 ft 426 kts 177°
2026-05-05 21:02 46.88331 8.55483 37925 ft 425 kts 177°
2026-05-05 21:03 46.82452 8.56327 37433 ft 424 kts 178°
2026-05-05 21:03 46.79577 8.56743 36963 ft 420 kts 178°
2026-05-05 21:03 46.76685 8.57163 36421 ft 418 kts 179°
2026-05-05 21:04 46.73788 8.57578 35849 ft 417 kts 179°
2026-05-05 21:04 46.70904 8.57988 35324 ft 418 kts 179°
2026-05-05 21:04 46.68031 8.58397 34703 ft 420 kts 180°
2026-05-05 21:04 46.65134 8.58809 34018 ft 422 kts 180°
2026-05-05 21:05 46.62208 8.59221 33286 ft 423 kts 180°
2026-05-05 21:05 46.59312 8.59627 32586 ft 423 kts 180°
2026-05-05 21:05 46.56358 8.60040 31875 ft 423 kts 180°
2026-05-05 21:05 46.53457 8.60451 31122 ft 425 kts 179°
2026-05-05 21:06 46.50524 8.60867 30316 ft 426 kts 180°
2026-05-05 21:06 46.47599 8.61281 29478 ft 427 kts 179°
2026-05-05 21:06 46.44657 8.61696 28681 ft 427 kts 179°
2026-05-05 21:06 46.41704 8.62111 27833 ft 429 kts 179°
2026-05-05 21:07 46.38737 8.62531 27231 ft 423 kts 178°
2026-05-05 21:07 46.35856 8.62941 26708 ft 417 kts 178°
2026-05-05 21:07 46.32968 8.63352 26165 ft 412 kts 178°
2026-05-05 21:07 46.30173 8.63744 25630 ft 406 kts 178°
2026-05-05 21:08 46.27369 8.64139 25089 ft 402 kts 178°
2026-05-05 21:08 46.24632 8.64522 24556 ft 397 kts 178°
2026-05-05 21:08 46.21892 8.64906 24031 ft 392 kts 178°
2026-05-05 21:08 46.19201 8.65281 23536 ft 386 kts 178°
2026-05-05 21:09 46.16555 8.65653 23039 ft 384 kts 178°
2026-05-05 21:09 46.13897 8.66036 22513 ft 381 kts 177°
2026-05-05 21:09 46.11315 8.66760 21980 ft 382 kts 169°
2026-05-05 21:09 46.08798 8.67986 21430 ft 383 kts 162°
2026-05-05 21:10 46.06414 8.69652 21053 ft 389 kts 156°
2026-05-05 21:10 46.04005 8.71506 20981 ft 392 kts 156°
2026-05-05 21:10 46.01599 8.73378 20969 ft 393 kts 156°
2026-05-05 21:10 45.99210 8.75265 20967 ft 393 kts 156°
2026-05-05 21:11 45.96830 8.77146 20965 ft 393 kts 156°
2026-05-05 21:11 45.94501 8.79183 20939 ft 398 kts 147°
2026-05-05 21:11 45.92556 8.82031 20881 ft 407 kts 132°
2026-05-05 21:11 45.91168 8.85591 20424 ft 409 kts 117°
2026-05-05 21:12 45.90171 8.89403 19979 ft 405 kts 114°
2026-05-05 21:12 45.89272 8.93153 19599 ft 399 kts 114°
2026-05-05 21:12 45.88375 8.96931 19209 ft 393 kts 113°
2026-05-05 21:12 45.87505 9.00596 18829 ft 388 kts 113°
2026-05-05 21:13 45.86644 9.04184 18429 ft 382 kts 113°
2026-05-05 21:13 45.85776 9.07768 18056 ft 377 kts 113°
2026-05-05 21:13 45.84924 9.11277 17655 ft 372 kts 113°
2026-05-05 21:13 45.84127 9.14826 17259 ft 382 kts 106°
2026-05-05 21:14 45.83975 9.18702 16889 ft 403 kts 86°
2026-05-05 21:14 45.84715 9.22555 16511 ft 408 kts 67°
2026-05-05 21:14 45.86309 9.25942 16108 ft 408 kts 47°
2026-05-05 21:14 45.88503 9.28357 15750 ft 403 kts 27°
2026-05-05 21:15 45.91123 9.29643 15370 ft 397 kts
2026-05-05 21:15 45.93862 9.29629 14994 ft 389 kts 347°
2026-05-05 21:15 45.96337 9.28367 14627 ft 378 kts 327°
2026-05-05 21:15 45.98324 9.26023 14245 ft 367 kts 306°
2026-05-05 21:16 45.99516 9.22839 14454 ft 358 kts 283°
2026-05-05 21:16 45.99757 9.19344 15139 ft 353 kts 262°
2026-05-05 21:16 45.99099 9.16002 15796 ft 350 kts 242°
2026-05-05 21:16 45.97649 9.13274 16465 ft 349 kts 222°
2026-05-05 21:17 45.95576 9.11426 16882 ft 357 kts 203°
2026-05-05 21:17 45.93154 9.10708 16956 ft 364 kts 184°
2026-05-05 21:17 45.90599 9.11023 16974 ft 366 kts 175°
2026-05-05 21:17 45.88118 9.11591 16970 ft 366 kts 174°
2026-05-05 21:18 45.85596 9.12214 16977 ft 366 kts 173°
2026-05-05 21:18 45.83094 9.12834 16973 ft 367 kts 173°
2026-05-05 21:18 45.80568 9.13465 16976 ft 367 kts 173°
2026-05-05 21:18 45.78062 9.14091 16982 ft 367 kts 173°
2026-05-05 21:19 45.75560 9.14711 16981 ft 367 kts 173°
2026-05-05 21:19 45.73048 9.15334 16992 ft 366 kts 173°
2026-05-05 21:19 45.70522 9.15964 16984 ft 367 kts 173°
2026-05-05 21:19 45.68023 9.16586 16979 ft 367 kts 173°
2026-05-05 21:20 45.65519 9.17214 16976 ft 367 kts 173°
2026-05-05 21:20 45.63007 9.17839 16957 ft 367 kts 173°
2026-05-05 21:20 45.60487 9.18469 16510 ft 366 kts 173°
2026-05-05 21:20 45.57998 9.19089 16010 ft 363 kts 173°
2026-05-05 21:21 45.55531 9.19697 15514 ft 360 kts 173°
2026-05-05 21:21 45.53077 9.20292 15018 ft 358 kts 173°
2026-05-05 21:21 45.50639 9.20876 14521 ft 356 kts 173°
2026-05-05 21:21 45.48220 9.21456 14025 ft 355 kts 173°
2026-05-05 21:22 45.45768 9.22036 13525 ft 353 kts 173°
2026-05-05 21:22 45.43355 9.22605 13030 ft 351 kts 173°
2026-05-05 21:22 45.40974 9.23164 12538 ft 349 kts 173°
2026-05-05 21:22 45.38582 9.23712 12039 ft 347 kts 173°
2026-05-05 21:23 45.36216 9.24249 11540 ft 345 kts 173°
2026-05-05 21:23 45.33872 9.24663 11044 ft 341 kts 179°
2026-05-05 21:23 45.31520 9.24684 10509 ft 340 kts 182°
2026-05-05 21:23 45.29152 9.24603 9886 ft 341 kts 183°
2026-05-05 21:24 45.26785 9.24497 9267 ft 342 kts 183°
2026-05-05 21:24 45.24453 9.24384 8645 ft 331 kts 183°
2026-05-05 21:24 45.22219 9.24175 8018 ft 316 kts 189°
2026-05-05 21:24 45.20086 9.23612 7381 ft 303 kts 192°
2026-05-05 21:25 45.18068 9.22978 6759 ft 293 kts 193°
2026-05-05 21:25 45.16138 9.22351 6151 ft 285 kts 193°
2026-05-05 21:25 45.14200 9.21869 5502 ft 279 kts 180°
2026-05-05 21:25 45.12354 9.22445 4860 ft 275 kts 153°
2026-05-05 21:26 45.10924 9.24130 4234 ft 272 kts 126°
2026-05-05 21:26 45.10211 9.26563 3604 ft 270 kts 98°
2026-05-05 21:26 45.10406 9.29148 3120 ft 263 kts 69°
2026-05-05 21:26 45.11445 9.31152 2971 ft 244 kts 37°
2026-05-05 21:27 45.12966 9.32038 2970 ft 239 kts
2026-05-05 21:27 45.14602 9.31723 2988 ft 239 kts 341°
2026-05-05 21:27 45.16197 9.31026 2981 ft 241 kts 345°
2026-05-05 21:27 45.17827 9.30588 2972 ft 233 kts 353°
2026-05-05 21:28 45.19384 9.30372 2961 ft 220 kts 355°
2026-05-05 21:28 45.20869 9.30223 2951 ft 207 kts 356°
2026-05-05 21:28 45.22263 9.30090 2947 ft 194 kts 356°
2026-05-05 21:28 45.23595 9.29958 2966 ft 192 kts 356°
2026-05-05 21:29 45.24923 9.29820 2976 ft 191 kts 356°
2026-05-05 21:29 45.26259 9.29678 2982 ft 192 kts 356°
2026-05-05 21:29 45.27583 9.29535 2981 ft 190 kts 356°
2026-05-05 21:29 45.28867 9.29395 2968 ft 182 kts 356°
2026-05-05 21:30 45.30136 9.29257 2896 ft 182 kts 356°
2026-05-05 21:30 45.31383 9.29122 2675 ft 181 kts 356°
2026-05-05 21:30 45.32635 9.28986 2468 ft 179 kts 356°
2026-05-05 21:30 45.33882 9.28852 2277 ft 180 kts 356°
2026-05-05 21:31 45.35121 9.28718 2045 ft 175 kts 356°
2026-05-05 21:31 45.36319 9.28588 1776 ft 168 kts 356°
2026-05-05 21:31 45.37452 9.28466 1527 ft 158 kts 356°
2026-05-05 21:31 45.38511 9.28351 1302 ft 147 kts 356°
2026-05-05 21:32 45.39503 9.28243 1111 ft 142 kts 356°
2026-05-05 21:32 45.40512 9.28129 933 ft 144 kts 356°
2026-05-05 21:32 45.41522 9.28024 715 ft 147 kts 355°
2026-05-05 21:32 45.42524 9.27913 516 ft 142 kts 356°
2026-05-05 21:33 45.43488 9.27827 362 ft 136 kts 357°
2026-05-05 21:33 45.44358 9.27737 346 ft 116 kts 355°
2026-05-05 21:33 45.44941 9.27670 354 ft 59 kts 353°
2026-05-05 21:33 45.45193 9.27635 353 ft 26 kts 358°
2026-05-05 21:34 45.45356 9.27694 350 ft 13 kts 27°
2026-05-05 21:34 45.45402 9.27727 350 ft 0 kts 26°
2026-05-05 21:34 45.45424 9.27747 350 ft 8 kts 38°
2026-05-05 21:34 45.45433 9.27759 350 ft 0 kts 44°
2026-05-05 21:35 45.45460 9.27791 350 ft 13 kts 31°
2026-05-05 21:36 45.45580 9.27815 351 ft 21 kts 360°
2026-05-05 21:36 45.45702 9.27818 354 ft 3 kts 359°
2026-05-05 21:36 45.45725 9.27826 354 ft 2 kts 40°
2026-05-05 21:36 45.45731 9.27848 355 ft 2 kts 82°
2026-05-05 21:37 45.45732 9.27865 355 ft 1 kts 86°
2026-05-05 21:37 45.45733 9.27885 356 ft 0 kts 86°
2026-05-05 21:38 45.45733 9.27897 356 ft 0 kts 86°